Flag for United Kingdom Weather past 2 weeks in London, England, United Kingdom

Now
55 °F

Sunny.


Feels Like: 52 °F
Forecast: 49 / 60 °F
Wind: 12 mph from Southwest

Location: Northolt

Current Time: May 30, 2015 at 9:55:09 PM

Latest Report: May 30, 2015 at 8:50 PM


Visibility: 10 mi

Pressure: 29.92 "Hg

Humidity: 55%

Dew point: 39 °F

Location of LondonLocation

Historic Weather in London — Graph

°F

London temperature yesterday

Maximum temperature yesterday: 57 °F (at 3:50 PM)
Minimum temperature yesterday: 46 °F (at 10:50 PM)
Average temperature yesterday: 52 °F

Past Weeks' High & Low Weather Summary

 TemperatureHumidityPressure
High68 °F (May 21, 4:50 PM)94% (May 18, 9:50 AM)30.36 "Hg (May 18, 9:50 AM)
Low39 °F (May 20, 3:50 AM)30% (May 21, 4:50 PM)29.56 "Hg (May 18, 12:50 PM)
Average55 °F67%30.06 "Hg
* Reported May 15 7:50 PM — May 30 7:50 PM, London, Weather by CustomWeather, © 2015

Note: Actual official high and low records may vary slightly from our data, if they occured in-between our weather recording intervals... More about our weather records

Advertising

London weather history for previous 24 hours

 ConditionsComfort  
Time TempWeatherWind HumidityBarometerVisibility
7:50 PM
Sat, May 30
57 °FPartly sunny.13 mph51%29.92 "HgN/A
6:50 PM59 °FBroken clouds.13 mph51%29.92 "HgN/A
5:50 PM63 °FSunny.10 mph37%29.92 "Hg10 mi
4:50 PM64 °FSunny.10 mph37%29.95 "Hg10 mi
3:50 PM61 °FSunny.8 mph39%29.95 "Hg10 mi
2:50 PM63 °FSunny.9 mph37%29.95 "Hg10 mi
1:50 PM59 °FScattered clouds.N/A42%29.95 "HgN/A
12:50 PM59 °FScattered clouds.10 mph39%29.95 "HgN/A
11:50 AM59 °FScattered clouds.8 mph42%29.95 "HgN/A
10:50 AM55 °FScattered clouds.12 mph47%29.95 "HgN/A
9:50 AM55 °FScattered clouds.10 mph55%29.95 "HgN/A
8:50 AM52 °FPassing clouds.9 mph67%29.95 "HgN/A
7:50 AM50 °FPassing clouds.10 mph76%29.92 "HgN/A
6:50 AM46 °FSunny.12 mph87%29.92 "HgN/A
5:50 AM45 °FSunny.7 mph87%29.89 "HgN/A
4:50 AM43 °FPassing clouds.7 mph93%29.89 "HgN/A
3:50 AM43 °FClear.6 mph93%29.86 "HgN/A
2:50 AM43 °FPassing clouds.6 mph87%29.86 "HgN/A
1:50 AM43 °FClear.7 mph81%29.86 "HgN/A
12:50 AM45 °FClear.6 mph76%29.86 "HgN/A
11:50 PM
Fri, May 29
46 °FClear.6 mph76%29.86 "HgN/A
10:50 PM46 °FPassing clouds.8 mph76%29.83 "HgN/A
9:50 PM48 °FSunny.6 mph71%29.83 "Hg10 mi
Weather by CustomWeather, © 2015

See weather overviewHow to use our weather pages